GFSFLT2_con_3kmhel_015.txt.gz
Helicity
-13 4 29 35 32 27 28 19 21 16 24 34 19 22 17 21 42 39 36 22 16 3 -11 -6 10 15 17 17 28 51 83 77
-19 16 12 -30 -28 -6 -0 9 9 -8 10 12 11 14 -0 9 26 16 3 6 2 -5 -8 6 9 23 25 25 56 103 92 52
2 12 -3 -17 -40 -29 -18 -12 -11 -22 -1 1 -7 5 10 13 32 30 7 21 10 -5 10 5 -2 -1 -5 -3 22 46 62 36
72 50 3 2 -10 13 -18 -27 -43 -44 -27 -0 -8 5 29 30 47 45 18 20 11 3 16 18 9 28 5 3 -2 -11 6 26
113 52 59 29 48 15 -1 -30 -39 -11 -4 53 32 56 68 72 53 30 34 19 38 31 31 42 37 54 47 37 15 -1 -5 20
164 120 88 45 55 55 33 44 67 64 75 91 73 63 72 78 58 28 10 31 29 39 45 34 30 41 49 50 63 55 37 41
223 136 130 69 74 65 110 81 86 121 109 93 91 80 64 44 30 20 14 29 42 46 48 37 51 58 67 59 57 77 80 72
247 197 74 75 92 68 96 100 90 114 93 80 89 78 54 50 49 48 43 48 49 52 50 50 44 61 82 97 98 104 116 110
615 391 6 10 97 105 107 85 105 85 95 95 95 115 104 118 101 83 76 71 62 56 53 58 58 59 66 70 86 95 126 162
458 150 363 40 28 85 161 144 85 111 140 208 267 281 201 175 143 129 127 114 90 80 62 81 77 81 74 69 75 81 80 115
209 191 97 60 45 100 121 124 100 125 190 235 252 267 224 185 162 155 168 143 124 112 87 89 72 67 67 74 75 77 93 91
166 81 -31 -6 110 212 245 266 265 242 241 342 359 318 280 200 161 137 152 125 110 81 81 85 92 101 103 99 102 91 82 87
281 306 318 293 342 301 301 322 318 360 437 292 218 201 160 162 149 161 186 149 93 84 86 108 117 111 104 91 91 98 93 85
234 249 304 372 333 335 322 289 271 218 162 180 218 226 265 317 265 218 192 146 129 94 92 97 110 125 106 111 103 58 15 75
133 133 150 223 253 246 245 236 214 211 177 158 168 246 245 224 210 201 161 149 135 114 108 133 124 105 158 132 151 170 87 28
74 38 72 119 129 140 146 141 149 124 117 191 241 218 213 183 159 125 110 100 114 126 136 136 125 114 86 157 125 80 47 59
55 67 82 91 66 58 53 71 111 198 236 214 188 181 149 137 132 120 104 95 84 64 72 102 109 115 117 114 135 156 153 101
-7 44 78 67 114 185 240 289 292 265 242 211 165 100 92 104 102 76 61 89 108 108 112 122 129 133 116 140 129 123 128 115
61 117 133 177 200 304 322 330 364 362 298 212 149 97 97 95 69 44 56 105 132 155 180 172 162 151 119 112 87 119 130 117
241 199 262 290 293 304 328 340 343 313 242 169 137 168 124 84 60 85 103 103 106 127 136 118 97 100 92 102 103 111 109 92

GFSFLT2_con_3kmhel_021.txt.gz
Helicity
-6 3 26 49 41 16 5 -1 2 2 -10 -29 -34 -33 -29 -23 -29 -25 -25 -35 -37 -32 -16 -14 -13 -3 9 35 27 44 35 41
-21 -9 15 14 -13 -5 -8 -2 -2 -13 -27 -28 -26 -24 -28 -29 -33 -24 -30 -36 -33 -28 -17 -17 -21 -21 -17 -1 18 21 19 16
-26 -14 -21 -30 -24 -44 -23 -12 -17 -23 -26 -18 -16 -21 -20 -26 -38 -33 -37 -49 -44 -34 -29 -27 -22 -22 -23 3 14 12 11 3
-59 -42 -41 -30 -31 -41 -26 -27 -32 -25 -18 -11 -10 -11 -11 -7 -17 -29 -11 -15 -16 -14 -16 -3 6 7 1 -1 15 24 32 28
-69 -55 -32 -20 -22 -21 -25 -13 -14 -7 13 8 9 4 7 32 28 51 55 59 57 50 45 39 36 31 27 20 16 15 41 51
-36 -13 8 -3 -15 -6 4 13 7 17 22 36 59 64 74 90 86 101 94 77 86 63 47 29 28 26 19 13 18 27 31 44
25 22 19 5 1 31 39 32 37 40 50 70 87 109 116 111 124 132 120 106 78 58 41 37 37 44 41 14 12 34 59 88
69 75 28 38 56 77 41 39 60 73 68 88 113 136 147 169 174 169 165 130 96 82 64 63 48 49 54 42 45 51 75 85
147 126 50 59 93 103 96 77 95 98 120 157 175 190 205 194 216 209 167 153 151 120 93 71 62 42 47 66 72 83 84 95
272 228 71 91 109 105 92 128 127 152 182 224 257 271 279 258 268 216 156 146 102 104 36 8 75 63 51 61 74 77 83 91
378 331 229 130 42 132 178 216 241 253 293 344 364 329 300 287 211 175 147 116 108 63 75 104 89 100 104 114 111 108 94 83
413 266 151 98 171 181 247 328 345 317 322 329 330 323 276 179 157 178 147 112 108 139 132 123 96 80 108 124 134 127 151 160
227 141 150 121 171 239 308 288 215 228 259 227 232 162 158 167 133 140 101 92 88 99 84 105 71 93 68 88 67 95 136 160
156 116 87 113 144 156 135 90 126 154 132 168 158 167 141 142 110 106 117 98 148 151 137 101 84 113 82 52 71 54 124 113
45 18 45 73 86 90 98 107 118 127 147 188 211 195 168 126 117 117 120 105 136 138 155 163 153 122 131 106 120 117 92 49
-5 12 41 8 21 34 48 52 81 130 174 174 191 204 180 152 149 108 57 135 186 151 143 125 121 130 98 151 133 111 66 34
43 32 37 31 34 39 70 121 173 208 191 177 193 148 152 86 125 -36 75 152 133 112 92 101 93 89 105 108 101 103 115 139
91 103 91 108 147 170 185 201 183 177 156 168 194 214 158 115 112 130 120 99 77 53 76 101 105 118 121 137 149 124 158 146
133 140 147 155 185 158 148 155 177 202 194 191 189 205 172 140 120 78 55 46 44 69 87 96 113 125 138 141 145 157 164 155
149 156 139 139 144 153 145 155 160 152 143 159 137 158 150 124 111 120 177 164 79 113 77 64 82 111 133 126 135 147 168 134

GFSFLT2_con_3kmhel_024.txt.gz
Helicity
-9 1 23 41 41 18 13 0 -11 -20 -24 -25 -27 -27 -26 -17 -6 -6 -10 -9 -4 2 10 6 -1 -7 -7 -4 -2 13 11 22
-11 10 20 12 -2 4 9 -9 -17 -22 -22 -12 -10 -13 -24 -25 -16 -19 -17 -16 -13 -3 8 9 8 2 2 6 7 9 5 4
-16 -9 -14 -8 -13 -15 -5 -20 -22 -21 -10 1 -4 -16 -20 -22 -24 -22 -9 -4 -4 7 20 24 15 9 2 -1 3 3 12 12
-29 -27 -32 -30 -36 -26 -31 -36 -34 -19 -3 -1 -1 2 3 4 6 7 32 42 51 65 56 36 19 1 8 12 1 -7 -1 12
-51 -43 -45 -42 -48 -40 -40 -35 -18 -12 -2 6 21 31 27 42 53 48 54 71 66 63 52 35 25 10 23 32 25 15 11 2
-27 -28 -34 -55 -43 -30 -27 -14 4 5 10 30 43 64 80 81 87 75 82 90 106 99 74 51 43 33 25 23 43 55 58 56
-33 -25 -38 -40 -24 -7 -9 -8 7 24 41 61 75 85 95 106 142 146 151 149 137 115 107 74 42 21 13 30 52 79 90 95
-4 -22 -29 -14 -14 1 9 8 21 59 86 93 106 106 127 184 218 211 181 159 135 106 91 56 36 9 0 65 82 75 79 98
93 92 24 10 3 -1 -1 17 71 120 126 142 153 170 209 223 223 199 175 131 125 134 128 110 82 46 82 94 94 90 104 124
268 298 120 142 130 118 -22 82 134 172 187 187 201 234 246 223 197 142 133 91 76 111 89 65 49 80 93 103 97 100 120 131
458 431 308 232 102 248 115 137 230 248 227 218 200 201 154 102 175 75 68 94 115 83 64 53 76 124 137 150 143 133 124 148
547 487 363 205 235 208 194 219 193 174 160 124 164 190 142 204 169 172 183 139 119 92 84 77 71 89 82 125 106 117 164 172
436 354 165 104 123 120 125 115 135 102 100 147 161 188 201 190 175 160 119 91 41 34 45 90 72 80 72 105 100 107 143 184
77 59 64 48 41 24 46 45 50 102 151 200 204 189 166 147 124 86 72 62 102 101 89 55 51 112 82 87 135 152 139 124
19 -4 25 18 49 73 86 94 114 139 183 189 176 170 149 134 133 137 122 118 134 114 139 146 144 152 168 202 230 219 162 121
60 25 27 48 63 72 90 93 127 182 219 208 175 157 178 146 151 157 172 162 160 133 140 154 170 187 139 130 113 102 96 51
62 58 50 55 78 108 159 193 204 186 189 174 187 194 182 172 176 182 160 120 90 80 95 111 118 126 124 118 107 79 69 104
79 98 95 100 136 171 191 206 191 192 176 179 177 174 158 157 135 128 87 89 101 83 111 110 94 89 98 94 102 115 104 84
154 145 137 135 161 174 170 166 161 159 159 169 177 180 175 117 120 110 137 121 101 105 97 92 108 112 125 94 76 87 99 104
192 183 134 121 138 133 136 126 131 123 123 143 139 142 124 130 158 168 158 142 144 142 145 129 118 78 43 52 91 109 133 118

GFSFLT2_con_3kmhel_030.txt.gz
Helicity
14 18 25 28 33 46 31 23 14 -0 2 4 16 21 23 18 13 7 1 11 18 31 40 43 47 35 20 5 -6 -24 -0 9
9 18 9 15 34 32 16 8 -4 -1 2 12 24 23 18 12 14 14 7 26 40 57 59 57 48 40 28 9 -26 -48 13 7
5 6 17 23 23 21 8 -0 1 9 11 15 1 11 14 23 42 46 49 65 76 77 73 62 20 32 33 7 -37 14 -2 16
5 17 22 22 13 8 1 -2 -4 4 8 10 14 18 27 43 61 74 81 74 82 90 86 60 48 47 33 2 18 -7 -1 -4
17 25 28 11 11 3 -4 -7 -0 10 19 20 31 22 28 36 47 53 58 55 69 85 91 97 72 44 32 18 2 -7 17 7
30 33 21 17 -2 -3 -2 4 19 26 34 31 28 32 45 47 58 66 63 75 84 97 121 102 87 68 46 37 26 14 25 7
15 22 13 8 11 11 23 32 44 47 50 60 39 47 76 78 90 85 84 89 109 101 122 117 86 91 49 51 34 23 19 33
28 24 19 23 34 25 32 34 33 48 57 72 50 52 97 98 84 85 98 144 167 136 135 109 76 93 92 59 27 36 59 81
56 60 46 40 54 72 53 33 38 26 73 69 98 92 91 87 97 118 174 213 179 165 120 108 109 100 65 53 58 81 98 117
126 137 136 173 212 173 67 12 13 -11 53 68 84 114 123 142 161 148 179 177 165 152 133 109 96 79 80 71 77 88 114 99
175 234 288 309 288 164 -159 -5 57 40 34 67 117 157 154 156 180 193 169 154 155 130 107 90 86 101 83 68 77 76 85 118
190 252 324 259 198 -10 36 36 58 52 64 100 109 132 153 158 176 170 139 148 135 109 90 92 83 110 88 74 79 55 78 133
144 191 203 124 86 42 43 33 38 55 71 103 126 146 163 167 169 154 130 136 123 111 114 130 105 118 74 103 74 67 88 124
104 92 55 42 28 44 21 34 33 68 93 127 151 169 192 197 173 160 143 150 148 142 135 114 114 142 108 95 144 181 111 239
26 17 42 48 57 50 44 56 64 82 126 164 201 208 209 194 159 165 157 145 145 122 143 118 149 116 158 154 203 253 288 179
31 56 77 78 53 56 60 82 94 144 174 212 212 184 160 156 163 140 124 112 117 121 127 117 111 121 125 141 167 170 216 259
56 114 133 116 99 93 106 144 169 180 192 195 175 168 148 147 128 118 110 101 112 136 154 147 128 144 141 168 174 148 122 160
134 155 138 146 132 140 168 181 166 169 187 177 172 155 147 133 111 114 129 137 152 170 160 131 133 137 125 118 106 110 100 109
130 141 185 186 186 175 175 166 173 162 178 177 146 124 104 106 130 130 150 160 170 169 148 94 95 112 144 115 109 95 96 101
160 198 201 198 196 214 176 162 140 163 161 116 100 104 121 148 143 139 130 132 143 153 123 87 82 112 127 99 109 94 113 126

GFSFLT2_con_3kmhel_033.txt.gz
Helicity
30 62 64 59 56 60 56 55 43 38 32 23 20 22 27 32 27 17 7 8 13 24 35 36 37 33 30 9 -13 -10 14 7
38 38 21 31 39 55 54 39 31 32 26 17 11 18 17 18 24 30 23 30 32 34 34 30 27 33 21 6 7 -1 10 22
-10 13 13 27 37 41 41 33 20 20 17 -0 -6 -0 5 28 61 44 50 55 53 48 49 44 30 30 9 -6 -10 16 3 21
40 35 39 16 24 13 17 8 -1 -2 3 2 -5 24 43 64 57 52 57 51 49 47 37 19 50 55 66 43 39 8 14 27
38 38 13 16 47 29 -3 -12 5 16 33 16 49 16 21 14 45 35 46 46 41 56 74 96 83 63 50 35 31 19 30 40
44 51 51 60 25 -3 22 44 44 47 42 38 29 15 31 39 45 60 38 64 63 82 102 104 80 61 55 42 25 25 32 24
50 41 41 44 47 59 67 57 31 32 47 58 74 91 70 48 65 48 74 75 96 126 169 137 80 65 62 50 43 16 21 30
53 51 47 46 69 76 47 43 26 42 44 85 136 126 84 71 53 78 105 173 186 140 137 82 96 78 68 59 58 29 22 49
70 76 77 109 140 140 137 104 22 10 67 66 113 123 139 84 168 232 138 131 103 126 120 129 102 86 59 69 59 70 77 83
88 91 118 238 198 241 206 117 38 28 7 37 117 136 158 166 174 156 135 124 140 147 143 113 84 62 54 72 81 74 85 76
103 154 248 240 221 256 238 181 68 -1 12 99 99 106 118 123 147 145 120 140 135 106 81 62 63 68 81 109 84 66 76 66
123 184 204 231 187 176 52 19 31 42 55 57 74 90 98 108 157 148 112 125 119 143 96 89 96 89 88 103 51 89 62 122
113 205 170 136 106 61 50 50 50 59 40 50 64 110 116 125 139 121 101 105 90 65 86 82 82 90 105 92 109 22 88 104
141 138 113 68 52 57 58 61 52 42 64 70 93 105 146 144 150 150 171 113 101 125 119 119 122 154 131 148 160 142 121 266
121 72 36 33 104 89 87 81 89 82 87 77 135 153 168 154 149 150 138 118 146 171 170 168 176 131 140 147 170 213 242 175
54 31 50 100 80 85 86 73 87 159 145 184 179 173 173 166 170 156 153 156 163 166 181 224 135 169 149 146 166 193 244 251
55 85 133 145 103 108 101 104 148 173 161 207 143 152 114 115 133 161 153 139 142 154 160 155 147 166 185 195 181 191 165 191
128 119 163 116 140 163 169 186 181 180 121 147 166 205 158 164 164 169 161 124 114 149 206 177 192 146 111 152 151 161 146 142
129 136 149 154 186 202 208 212 178 150 179 177 218 166 164 165 181 135 134 132 128 146 205 171 121 102 83 98 149 164 139 99
139 169 184 192 215 250 243 236 185 163 173 201 169 160 150 151 120 116 101 93 99 115 175 200 112 92 94 107 153 122 118 122

GFSFLT2_con_3kmhel_036.txt.gz
Helicity
64 53 92 92 84 82 65 46 59 55 53 42 28 16 13 16 22 21 24 23 21 12 1 -5 -7 -7 14 24 46 22 56 0
10 41 53 94 100 82 56 49 56 50 35 7 -6 -6 4 10 25 29 33 32 32 26 14 12 18 -3 -20 28 28 9 25 6
-31 -3 12 55 77 60 42 34 33 15 -6 -20 -30 -27 -15 37 43 41 41 37 37 33 24 15 66 41 44 66 40 15 52 48
-14 -49 -10 33 51 1 -11 -15 -27 -29 -22 13 -12 10 48 46 34 41 30 32 32 10 5 49 65 65 67 46 19 15 21 42
20 34 -13 15 14 -30 -28 -52 -40 9 1 24 32 39 32 50 14 14 4 9 36 47 48 108 84 44 57 14 -3 2 15 26
104 75 63 77 11 -37 4 65 118 71 38 11 28 37 36 76 121 91 58 95 80 114 143 151 98 43 53 19 30 31 19 7
74 60 80 9 5 106 146 60 76 35 13 38 115 146 143 172 169 134 135 204 160 174 126 98 97 85 76 76 60 63 33 35
66 49 15 17 186 169 132 83 64 47 38 57 61 90 120 127 203 193 157 138 123 133 110 108 99 76 69 59 53 52 36 52
45 43 13 211 172 191 177 102 43 57 71 143 120 134 148 177 143 132 112 113 129 131 117 115 91 75 47 28 41 94 37 51
106 77 209 242 236 164 110 85 125 132 -25 -6 137 128 144 138 125 114 103 84 106 136 134 111 60 46 31 27 83 71 55 58
118 172 275 257 129 137 234 176 56 31 16 15 86 90 100 92 82 93 99 111 144 153 116 77 76 69 69 90 98 70 26 28
135 278 240 204 131 129 108 92 37 32 24 81 53 66 61 54 98 101 83 113 158 143 110 68 55 65 80 95 77 98 77 75
203 259 186 162 123 124 96 74 69 71 91 51 46 70 62 93 128 79 65 153 179 127 145 138 114 100 115 82 103 96 124 166
295 246 160 107 106 79 83 100 80 61 85 67 94 62 85 104 154 186 246 188 134 161 190 150 148 183 117 133 104 108 117 185
337 213 137 50 34 103 139 117 116 135 132 93 130 99 138 162 172 184 169 179 185 175 158 163 223 164 157 171 168 196 181 168
259 163 48 10 102 132 133 109 110 93 93 168 161 156 166 149 199 190 172 153 135 138 153 194 196 196 191 200 200 278 287 259
112 26 8 96 135 128 89 114 237 312 371 346 225 143 139 128 120 179 194 184 173 168 166 192 250 254 255 277 241 238 254 322
6 20 190 267 180 184 156 218 296 272 211 198 162 220 250 285 331 312 257 217 198 182 183 228 235 213 195 245 227 264 262 265
184 205 299 215 203 229 283 335 361 363 331 319 313 229 287 286 275 225 184 165 148 139 140 170 219 215 208 191 165 178 144 194
183 159 284 243 247 271 294 367 336 383 422 360 212 242 247 217 175 167 148 149 142 133 149 167 196 240 189 135 112 159 196 194

GFSFLT2_con_3kmhel_039.txt.gz
Helicity
143 117 -19 46 66 67 93 64 44 37 37 31 26 20 21 22 25 25 24 26 22 18 18 20 9 4 40 37 48 79 29 1
-15 -35 23 53 37 57 77 48 17 18 18 -9 1 17 25 27 28 30 34 33 34 34 45 55 27 19 36 38 22 60 52 16
-67 17 30 24 28 47 52 18 7 8 9 8 0 -5 8 21 37 40 34 35 30 25 58 65 55 38 14 36 17 17 24 -3
-96 -10 0 0 -11 -1 -18 -16 -21 4 -12 -23 -38 -11 1 13 24 38 32 33 35 42 74 71 74 39 14 14 -3 -8 2 -3
-59 -20 -15 0 -7 -33 -25 -17 -17 -7 -5 -20 -39 -15 17 43 34 3 44 24 56 102 136 107 83 73 68 51 41 34 26 21
-30 -21 -35 -22 -45 -24 -13 -23 -30 -9 -19 14 39 62 65 79 88 103 108 155 171 161 136 129 145 112 98 84 65 48 50 27
47 21 11 -24 26 26 52 30 71 68 97 108 128 170 205 147 125 176 194 185 214 167 141 146 128 109 92 71 53 65 57 28
112 94 22 103 133 201 172 126 106 131 126 120 129 157 151 132 178 224 199 168 164 148 140 129 118 94 76 63 61 56 32 21
83 34 93 190 234 239 142 133 141 210 88 85 113 134 190 204 185 168 145 112 127 143 142 136 129 111 88 40 86 57 25 36
30 68 188 216 178 163 186 176 162 178 148 88 96 137 182 175 141 128 115 116 117 128 118 123 99 76 56 71 68 61 50 66
95 182 187 183 208 191 173 184 152 115 24 -24 31 46 106 157 106 100 136 137 150 117 96 80 76 56 35 36 29 38 53 65
255 259 188 198 223 238 178 133 114 60 33 62 77 99 87 79 88 91 128 139 125 99 88 90 66 45 47 24 21 34 76 112
323 293 239 256 238 202 148 120 53 33 53 95 96 86 115 112 103 74 93 119 104 109 109 110 59 60 46 19 -1 71 54 138
360 306 200 171 187 134 122 102 69 91 100 109 109 94 115 131 143 168 170 162 171 157 133 109 100 96 67 52 59 58 87 96
386 306 197 172 132 150 177 123 167 142 133 153 121 149 149 88 104 136 182 157 132 118 114 125 125 119 119 141 139 147 109 131
327 274 189 95 90 194 216 166 189 150 166 173 156 179 133 87 105 116 175 132 129 118 117 128 165 156 171 184 196 195 178 182
338 225 113 97 99 207 195 200 174 207 249 241 187 138 134 152 294 290 267 234 209 184 170 173 177 196 198 204 223 232 225 263
243 179 100 86 133 212 221 284 385 428 409 334 306 326 379 350 288 327 280 253 207 173 172 172 174 193 209 215 229 240 257 275
208 155 103 159 305 342 339 364 384 405 429 506 488 383 384 351 270 254 198 167 169 170 162 160 159 190 227 235 230 212 226 241
144 134 234 285 363 396 443 448 502 542 534 496 456 430 365 421 251 222 200 171 153 138 135 146 165 197 255 240 214 184 209 253

GFSFLT2_con_3kmhel_042.txt.gz
Helicity
251 205 136 37 -15 18 43 53 49 56 30 28 18 23 35 42 50 56 55 51 45 43 50 43 37 43 46 55 52 37 34 9
317 212 100 -43 1 27 41 40 24 -0 3 33 24 24 43 52 53 48 54 53 62 68 64 61 37 44 30 35 57 39 16 10
77 -18 -54 -15 19 5 -15 -27 -31 6 14 20 24 21 33 42 38 54 59 56 85 94 90 81 64 44 30 30 22 6 18 13
-48 -75 -77 -25 -13 -25 -27 -32 -3 23 21 11 22 31 25 20 29 60 60 92 103 107 124 129 94 64 53 48 8 23 24 17
-95 -55 -49 -2 -18 -43 -53 7 25 10 -2 10 38 28 41 17 59 69 75 88 107 147 136 128 137 108 77 48 42 40 37 38
10 13 4 -12 -21 -44 -32 22 10 18 29 25 7 45 55 72 91 72 87 139 183 185 166 150 120 101 96 84 59 63 53 49
-30 5 -7 -20 -31 -48 -14 29 18 69 110 88 80 55 59 107 141 156 191 186 170 175 152 149 141 116 106 93 89 82 72 47
-39 -7 -45 -15 11 12 12 29 91 112 101 118 143 137 166 185 200 217 223 194 178 161 136 135 122 101 94 103 107 79 75 70
16 27 11 37 36 35 51 102 106 121 123 134 154 150 171 192 222 220 189 171 173 158 141 127 119 101 125 90 53 43 70 68
72 65 89 79 122 141 134 132 153 138 133 137 143 156 177 197 206 221 189 182 165 141 120 130 119 86 26 50 44 42 66 112
191 173 182 201 199 189 173 165 175 141 138 142 123 114 135 171 195 202 174 155 126 120 128 86 43 21 20 40 16 42 80 107
181 167 199 230 228 220 201 199 181 143 127 87 100 135 166 160 158 157 133 146 146 127 86 43 18 19 34 35 -16 10 68 122
208 216 220 255 263 255 213 195 163 114 72 59 78 137 143 148 154 149 148 155 114 63 44 52 63 69 55 37 -6 29 37 101
184 185 224 228 249 223 213 182 112 54 46 79 97 157 163 166 157 145 113 94 77 110 103 101 87 61 71 50 83 86 111 40
230 202 218 215 212 234 263 202 164 130 136 113 132 170 152 167 133 113 86 119 109 133 127 102 99 86 78 115 130 128 124 83
286 252 236 178 189 295 260 215 257 189 189 155 191 182 163 179 195 205 157 185 142 160 136 114 107 100 123 138 154 167 144 143
329 284 213 122 162 252 220 190 218 227 214 222 239 204 265 275 246 255 302 291 247 196 184 169 116 137 155 170 177 183 185 175
327 265 224 153 160 195 217 211 238 286 267 284 270 337 383 389 352 288 225 311 292 207 161 186 178 175 188 188 215 215 175 196
332 264 191 208 183 179 204 242 291 286 320 379 409 464 464 378 265 336 311 299 234 151 160 186 196 172 174 183 208 207 215 211
311 283 221 224 201 206 262 331 399 414 423 464 519 476 426 453 464 321 180 106 152 148 128 128 147 155 149 152 171 180 202 226

GFSFLT2_con_3kmhel_045.txt.gz
Helicity
356 283 184 96 43 28 30 71 73 28 8 25 39 54 72 70 73 78 80 65 58 52 54 68 66 62 46 47 38 57 23 10
338 282 263 100 35 21 48 57 13 14 21 42 54 54 44 55 60 84 76 71 81 84 76 79 80 72 64 68 68 62 42 34
236 241 239 6 -40 25 27 15 9 -29 46 57 60 47 45 43 61 86 95 96 103 107 101 97 84 79 68 77 57 14 32 25
226 258 196 -14 -54 -21 -8 31 50 71 39 49 38 58 55 64 92 129 119 105 125 147 134 120 91 53 47 66 27 38 47 43
8 -156 -112 -44 -8 14 9 11 24 74 36 60 65 71 87 85 94 73 76 108 130 152 144 113 101 94 68 41 48 72 73 83
-244 -168 -84 -3 -7 -33 -36 -27 28 30 30 46 68 88 83 81 76 87 106 131 193 163 124 117 130 93 66 59 81 84 73 58
-13 -1 -9 -8 -28 -30 -35 -42 37 0 14 23 48 47 81 79 83 115 147 170 188 167 154 142 130 107 84 89 114 106 90 65
14 12 -7 -5 -17 -12 -31 -9 17 31 45 40 42 67 90 111 148 171 203 211 188 181 166 144 130 99 95 103 110 98 85 75
9 16 6 15 -5 -22 -1 6 48 70 72 78 93 124 149 176 199 221 231 241 209 177 157 145 124 100 111 113 92 75 107 100
-9 -2 12 9 -2 1 42 54 62 93 84 104 135 159 211 253 261 276 238 200 158 153 140 132 114 99 75 49 50 58 87 99
-17 -9 17 13 20 34 83 89 108 109 115 124 144 199 244 271 262 208 176 168 151 125 121 86 78 52 23 1 7 31 60 82
25 29 42 46 87 132 155 144 145 144 150 143 174 189 214 245 227 198 184 177 152 112 88 87 20 7 3 -7 16 58 58 84
98 121 114 165 199 226 199 175 184 182 156 150 156 146 216 224 206 191 165 155 105 110 93 38 -10 30 35 37 17 32 47 108
165 205 211 203 237 237 205 220 181 174 167 154 143 181 185 169 178 167 158 159 157 120 47 23 80 41 43 30 70 91 98 76
207 211 231 224 246 257 252 288 233 242 224 190 152 139 127 150 167 177 173 152 116 96 73 98 111 76 48 102 116 105 155 133
184 190 257 238 258 272 306 309 273 181 170 153 173 149 149 180 216 222 194 145 165 169 109 119 93 92 118 79 112 154 141 156
230 230 215 230 244 242 253 233 178 159 206 217 208 202 230 262 245 212 237 275 286 209 155 194 132 136 87 123 150 189 194 208
304 322 265 190 243 222 218 218 147 183 210 241 256 286 307 323 344 351 342 281 261 175 286 293 138 140 120 154 197 195 209 214
315 303 247 205 243 241 268 165 164 166 224 289 334 357 378 390 400 379 364 514 234 296 419 349 227 139 118 148 148 156 202 206
301 271 212 213 224 245 251 140 194 242 278 330 417 455 519 552 549 571 218 224 399 380 303 200 224 140 127 116 157 148 167 185

GFSFLT2_con_3kmhel_048.txt.gz
Helicity
440 476 222 142 120 111 68 47 25 60 84 71 72 77 71 71 61 58 51 59 82 96 82 77 73 72 70 68 59 56 33 17
466 435 375 219 107 68 16 28 69 78 105 66 56 76 81 60 70 66 89 100 83 96 89 90 97 81 75 70 64 56 31 34
285 354 260 183 134 35 13 31 52 106 119 91 62 47 60 71 70 90 94 102 123 112 108 99 88 84 77 69 70 25 32 44
327 315 459 387 154 2 -5 43 76 131 74 -9 48 57 62 81 92 87 111 141 147 149 142 125 80 37 15 58 38 51 57 57
290 190 242 73 -25 -67 21 46 89 65 -0 44 53 67 86 71 75 91 96 128 115 136 130 97 47 9 43 42 43 56 57 63
128 141 24 -173 -62 -61 7 45 83 60 6 -9 44 70 70 64 77 91 115 124 146 131 108 84 81 70 50 51 67 67 56 57
-243 -281 -281 -161 -29 16 18 -9 -20 -37 -37 -0 39 61 64 77 96 111 134 146 160 159 131 101 93 88 94 91 90 69 56 62
-179 -45 -41 -8 -25 -26 -29 -20 -34 -33 -33 -19 24 50 72 102 120 154 172 176 196 171 136 111 102 90 101 98 92 96 99 93
-51 -31 -30 -26 -34 -34 -28 -36 -35 -34 -26 9 36 59 89 128 175 210 228 232 216 175 140 123 99 96 118 130 134 114 86 71
-5 18 15 -3 -25 -28 -22 -24 -10 16 33 51 59 84 119 202 256 254 230 211 178 155 138 133 109 106 105 110 84 64 36 48
39 10 13 16 -7 -42 -15 3 18 33 62 72 88 115 182 251 234 232 217 194 163 143 136 118 110 101 77 45 8 10 27 25
-2 -2 -4 7 3 5 6 37 59 49 57 95 125 162 214 236 248 242 215 202 174 161 152 149 112 57 -4 -3 -2 18 56 39
3 25 18 59 50 58 62 94 113 91 86 141 159 182 218 235 229 222 197 183 164 182 172 124 84 29 19 20 15 21 65 70
51 60 84 90 101 121 129 168 147 123 147 155 164 201 206 211 214 206 189 215 211 171 137 130 90 49 32 -12 63 88 66 75
79 92 118 145 170 235 210 272 190 165 164 174 177 189 201 202 192 216 235 232 184 156 158 142 99 60 84 80 114 113 99 116
67 64 100 155 207 237 303 282 303 219 168 176 181 190 202 196 233 251 247 217 215 185 144 141 111 43 141 183 154 189 204 194
151 149 156 185 233 241 293 310 309 238 191 201 219 208 228 234 262 285 279 254 236 245 236 220 180 93 167 231 191 284 227 211
225 227 222 210 208 245 260 269 268 215 177 204 231 242 256 273 291 315 309 302 297 381 317 90 198 206 261 196 227 239 250 263
276 264 258 256 200 182 220 257 285 220 173 203 262 287 321 322 325 357 481 496 402 300 202 193 181 232 244 157 190 191 224 271
295 267 267 272 257 184 166 272 315 218 186 229 297 356 430 487 626 609 554 312 469 255 176 229 280 214 184 193 210 198 193 215

GFSFLT2_con_3kmhel_054.txt.gz
Helicity
402 336 250 266 182 146 142 131 195 180 111 159 103 104 80 81 76 76 78 63 47 50 46 46 48 36 19 16 -1 -42 3 -2
385 433 362 221 233 158 164 173 199 155 145 125 112 99 80 85 79 72 77 75 70 58 55 49 35 29 25 4 -15 -40 -1 7
575 491 677 737 360 102 84 121 127 130 120 110 73 36 47 13 80 78 83 78 80 84 67 49 43 38 19 -4 -43 -3 1 10
496 647 464 280 208 264 56 36 43 78 74 77 45 38 36 51 70 101 100 103 102 77 42 -0 -23 9 7 -10 4 -4 2 7
493 587 488 657 551 275 169 22 148 34 56 49 33 61 58 52 55 54 64 73 48 39 16 40 31 14 25 8 4 4 13 20
519 588 141 198 264 338 246 126 -84 -80 23 15 66 59 40 33 32 38 43 33 57 33 64 68 36 27 24 14 18 20 27 34
302 250 286 236 115 118 -37 -117 -40 -5 -2 45 48 42 42 35 46 34 58 63 57 87 74 41 27 29 29 36 44 43 35 38
102 82 59 107 148 31 -122 -58 -24 7 24 13 28 34 40 43 44 66 80 73 89 80 64 43 42 41 50 54 50 40 45 36
-49 -58 -135 -140 -119 -86 -54 -41 8 -0 -5 11 30 40 30 49 75 81 81 98 104 94 72 54 57 70 70 55 44 43 58 54
-64 -82 -109 -3 28 -20 -29 -59 -24 -7 45 55 53 42 43 52 60 73 102 99 109 119 63 78 92 88 79 69 61 64 67 55
-2 -11 -11 -14 -26 -50 -53 -38 -27 -45 -42 36 41 30 34 45 50 86 129 142 137 113 99 103 107 95 90 82 85 78 65 58
39 14 4 -4 -18 -32 -39 -31 -67 -48 -14 4 35 -20 24 33 57 113 141 141 152 139 141 134 123 116 104 93 83 56 53 68
38 31 13 -5 -23 -44 -58 -57 -37 -28 4 21 31 43 40 50 78 120 145 149 177 182 163 161 152 127 98 86 66 43 26 5
52 47 39 20 -14 -33 -37 -23 -13 -6 19 27 42 62 67 89 102 116 134 190 197 192 174 173 161 133 139 98 59 79 88 55
48 38 25 14 -7 -9 -3 -7 6 34 33 39 85 70 85 85 107 125 165 216 233 197 180 158 164 167 133 108 82 89 128 111
24 8 7 7 15 6 26 24 17 33 51 79 91 90 93 89 119 162 196 221 224 201 191 182 190 183 183 78 61 78 103 140
12 16 17 27 43 36 47 39 27 50 99 90 103 125 126 142 165 205 214 213 212 207 209 193 300 290 117 163 49 69 95 126
38 45 63 76 89 93 89 86 90 126 122 120 109 138 150 174 202 216 197 190 213 229 280 317 274 194 137 73 67 122 150 175
51 59 81 89 111 105 106 103 107 123 113 174 152 168 202 210 209 149 160 193 310 375 292 279 211 220 112 72 127 144 188 179
86 99 105 121 129 123 118 114 100 122 127 119 170 186 255 170 180 179 267 255 317 308 314 295 189 170 88 102 116 165 164 133

GFSFLT2_con_3kmhel_060.txt.gz
Helicity
-7 195 327 244 162 172 204 188 193 189 172 161 188 173 127 91 81 63 45 30 23 18 15 12 16 13 9 9 43 46 48 8
274 255 221 65 108 126 152 268 249 186 165 173 191 142 123 91 77 63 43 36 28 22 10 6 6 4 -4 3 40 75 65 91
238 313 253 359 433 139 171 130 154 129 131 129 140 71 82 78 75 67 59 45 20 7 -6 -17 -21 -22 -10 15 3 44 67 83
251 282 221 300 244 335 334 206 148 75 80 116 122 80 76 75 78 74 68 38 3 -14 -16 -18 -0 -19 -9 1 16 21 49 57
374 390 286 257 220 265 215 262 119 18 103 142 114 102 56 56 71 61 41 28 -9 -15 -13 -22 13 30 25 26 24 26 51 45
473 540 516 488 531 546 468 233 67 114 60 94 61 62 17 32 64 30 5 -15 -16 -11 24 24 44 28 22 35 40 50 53 39
448 496 466 642 561 534 581 207 133 150 102 133 21 59 10 34 14 6 -7 -14 1 33 45 33 33 29 36 29 31 29 28 59
349 417 541 683 739 586 301 254 291 333 114 45 -30 -20 15 8 -19 -2 -17 66 37 51 46 30 12 47 40 33 45 33 16 71
353 451 479 505 396 338 215 355 274 43 23 -114 -59 -42 7 25 37 7 29 54 72 48 89 41 56 22 44 29 46 33 48 74
158 173 146 150 129 161 24 -71 7 -152 -202 -116 -69 15 31 22 -2 -2 98 77 84 83 86 54 39 55 63 42 78 75 84 70
-17 20 61 76 30 -117 -194 -233 -245 -157 -32 -32 -37 -34 -28 -25 5 83 87 84 106 79 85 41 80 87 106 96 111 105 87 66
8 -18 -50 -92 -204 -105 -4 -10 -39 -57 -50 -50 -41 -12 -21 60 63 69 92 108 147 123 99 98 126 107 74 140 135 111 112 123
-34 -59 -83 -108 -87 -44 -58 -50 -72 -83 -79 -55 -21 -16 -5 28 70 42 132 169 184 121 136 151 117 165 184 142 151 158 146 145
12 -44 -37 -29 -12 -18 -28 -16 -30 -38 -54 -33 42 50 3 26 49 77 134 179 136 184 167 178 153 182 190 135 195 247 237 174
56 43 12 -14 -40 10 -19 -27 -21 -5 2 -7 62 93 82 87 140 182 176 146 152 201 221 191 189 207 191 210 240 254 273 200
93 73 26 -4 -52 40 44 42 50 74 61 58 130 149 121 97 147 159 290 284 233 219 229 163 199 240 308 206 284 280 289 210
103 48 46 60 19 -59 11 64 75 48 71 117 270 233 147 131 159 195 247 301 259 341 311 227 129 133 300 393 308 262 165 187
103 49 43 43 94 21 13 70 117 90 108 138 263 267 191 138 155 187 231 272 347 376 247 294 282 164 183 365 310 275 264 309
134 87 56 28 5 102 123 76 93 92 55 151 212 255 207 176 169 171 233 311 344 349 354 338 324 219 235 217 286 275 264 222
164 149 108 49 37 69 123 109 145 136 142 2 185 209 175 225 173 266 317 351 348 360 548 416 306 239 267 251 328 256 213 171